TIME,DELAY(SENSOR),PRES,OXYGEN,RAWTEMP,T(OPTODE),TCPHASE,FLUOR,BETA(BETA700),BETA(BETA412),BETA(BETA440),CDOM,C(CSC),ED(ED412.40),ED(ED444.00),ED(ED489.70),ED(ED554.30),LU(LU411.80),LU(LU443.40),LU(LU489.60),LU(LU554.10),COMP,TILTX,TILTY,CHECK
1338262501,5810,879.0700073242188000,42.8725395202636700,661.7766723632812000,4.5694642066955570,54.5889091491699200,53,102,92,79,83,15334,2147754971,2147422281,2148006381,2147875273,2147643940,2147062610,2148264182,2147200649,878,4,14,61816
1338266097,5812,959.7999877929688000,46.2409286499023440,669.0275878906250000,4.3303132057189940,54.1848983764648440,53,102,91,79,83,15329,2147759734,2147420013,2148008740,2147877321,2147644068,2147065133,2148260370,2147198893,1727,4,14,46065
1338269697,5811,974.8300170898438000,47.9360694885253900,671.2460937500000000,4.2570247650146480,53.9705085754394500,52,100,89,77,83,15335,2147759104,2147424201,2148005184,2147874313,2147647149,2147058642,2148259958,2147200054,3485,4,13,23530
1338273297,5810,983.8699951171875000,47.8329315185546900,672.1735839843750000,4.2263679504394530,53.9981307983398440,52,97,89,79,84,15335,2147759122,2147424137,2148008128,2147875766,2147643117,2147057106,2148262262,2147199552,3,4,13,17037
1338276897,5809,991.0399780273438000,47.7477989196777340,672.7708129882812000,4.2066230773925780,54.0155601501464840,53,117,92,79,83,15334,2147757732,2147421833,2148008832,2147875254,2147644617,2147060434,2148261266,2147198811,437,4,13,13964
1338280497,5808,989.7999877929688000,47.6955718994140600,672.8695068359375000,4.2033600807189940,54.0297813415527340,53,98,90,80,84,15327,2147760850,2147424795,2148008978,2147874395,2147646665,2147055853,2148264630,2147197430,594,4,14,21585
1338284097,5806,999.5999755859375000,47.6137504577636700,673.1586914062500000,4.1937980651855470,54.0462989807128900,53,99,88,78,83,15335,2147757915,2147423314,2148009243,2147874742,2147644836,2147058889,2148262345,2147201179,3456,4,13,38153
1338287697,5807,993.5300292968750000,47.4786109924316400,673.1607055664062000,4.1937308311462400,54.0625190734863300,52,103,89,79,84,15306,2147760512,2147420726,2148008457,2147874212,2147642102,2147059949,2148264557,2147201508,73,4,13,8023
1338291297,5810,1002.0700073242188000,47.4079895019531250,672.7006225585938000,4.2089462280273440,54.0644912719726560,53,99,83,79,83,15302,2147759222,2147421129,2148006098,2147874962,2147640868,2147066459,2148264713,2147198930,3107,4,13,33469
1338294897,5810,1003.5200195312500000,47.0572204589843750,672.3270263671875000,4.2212982177734375,54.1122512817382800,53,99,87,80,83,15302,2147757851,2147421833,2148005970,2147872658,2147646098,2147066331,2148262592,2147201892,114,4,13,50093
1338298497,5807,1005.7000122070312000,47.2631301879882800,672.8875732421875000,4.2027611732482910,54.0885581970214840,52,101,86,81,84,15297,2147757760,2147424374,2148008228,2147875721,2147643282,2147055844,2148266825,2147202870,3521,4,13,26242
1338302097,5810,1000.4799804687500000,47.4896316528320300,673.3967285156250000,4.1859278678894040,54.0653190612793000,54,105,91,78,84,15302,2147760201,2147421769,2148005787,2147873782,2147647661,2147058285,2148262409,2147199606,120,4,13,3830
1338305697,5807,999.6799926757812000,46.9673118591308600,672.3527832031250000,4.2204461097717285,54.1211814880371100,53,100,87,79,84,15298,2147758226,2147420461,2148007725,2147876150,2147643318,2147059227,2148262784,2147198848,3353,4,13,35579
1338309297,5808,1006.6199951171875000,47.4113807678222660,673.3685302734375000,4.1868572235107420,54.0724983215332000,53,98,85,81,83,15301,2147759588,2147422957,2148007442,2147875958,2147642724,2147054454,2148266340,2147196644,192,4,13,30787
1338312897,5810,1008.3400268554688000,47.0556983947753900,672.2619018554688000,4.2234501838684080,54.1086311340332000,52,99,86,80,83,15295,2147756918,2147421083,2148006747,2147877595,2147646683,2147066084,2148263533,2147196891,3202,4,13,60777
1338316497,5809,1007.4299926757812000,46.8520011901855500,672.0891723632812000,4.2291579246521000,54.1352081298828100,53,105,89,79,84,15300,2147757878,2147420278,2148006244,2147876955,2147644873,2147057115,2148267904,2147199140,355,4,13,12813
1338320097,5810,1000.4099731445312000,47.4298706054687500,673.6333007812500000,4.1781010627746580,54.0748405456543000,52,102,86,79,83,15301,2147756425,2147418934,2148006445,2147874322,2147643977,2147058221,2148257782,2147199917,276,4,13,44882
1338323697,5811,1002.8400268554688000,47.2652282714843750,673.0908203125000000,4.1960411071777340,54.0875091552734400,52,98,86,79,84,15301,2147758390,2147419867,2148005321,2147878710,2147644690,2147057042,2148263881,2147201024,224,4,13,33351
1338327297,5809,1003.4799804687500000,47.3465995788574200,673.8613281250000000,4.1705608367919920,54.0888710021972660,52,98,90,80,83,15301,2147761810,2147422016,2148004178,2147876544,2147644068,2147057691,2148262848,2147198729,263,4,13,21676
1338330897,5805,1012.3499755859375000,46.7482604980468750,671.8610229492188000,4.2367019653320310,54.1504402160644500,53,100,90,78,83,15295,2147759625,2147419584,2148005293,2147877074,2147642468,2147060818,2148263314,2147196470,693,4,13,43884
1338334497,5809,1000.6699829101562000,47.3090591430664060,673.6516113281250000,4.1774959564208980,54.0942687988281250,52,99,90,80,84,15292,2147757522,2147421686,2148005970,2147874605,2147645915,2147062546,2148263780,2147202249,363,4,13,8060
1338338097,5809,999.8599853515625000,47.5972709655761700,674.4000854492188000,4.1527371406555180,54.0598106384277340,52,99,87,79,85,15283,2147759177,2147421732,2148005942,2147876342,2147644745,2147060525,2148263177,2147201033,618,4,13,52862
1338341697,5808,1001.1199951171875000,47.7001800537109400,674.9722900390625000,4.1338019371032715,54.0533790588378900,53,99,89,79,84,15290,2147761389,2147422381,2148006061,2147875172,2147645714,2147063177,2148259620,2147200018,218,4,13,43492
1338345297,5807,1013.5200195312500000,47.8844184875488300,674.3549804687500000,4.1542258262634280,54.0190315246582000,54,100,89,80,82,15290,2147759323,2147422738,2148006509,2147874880,2147645101,2147062756,2148263067,2147197824,2915,4,14,13626
1338348897,5811,1016.8599853515625000,47.8649597167968750,674.2276000976562000,4.1584420204162600,54.0193786621093750,54,99,89,80,83,15288,2147754587,2147422025,2148006070,2147874953,2147644726,2147055817,2148267227,2147200201,3308,4,13,10308
1338352497,5807,1008.2999877929688000,47.4166488647460940,673.3692016601562000,4.1868338584899900,54.0722007751464840,53,99,86,80,83,15294,2147759588,2147421787,2148009398,2147878473,2147645504,2147058962,2148267638,2147198902,3574,4,13,6078
1338356097,5812,1007.8300170898438000,47.4987182617187500,674.3261718750000000,4.1551818847656250,54.0723495483398440,53,97,88,80,83,15293,2147759990,2147422592,2148007021,2147875922,2147645696,2147064621,2148265755,2147199725,3577,4,14,47465
1338359697,5811,1011.2500000000000000,47.7717399597168000,674.3864746093750000,4.1531829833984375,54.0339508056640600,53,97,91,80,83,15292,2147757796,2147421961,2148007003,2147877193,2147648064,2147059858,2148264777,2147199396,3302,4,13,39044
1338363297,5811,1014.6500244140625000,46.6748580932617200,672.8325195312500000,4.2045860290527340,54.1679992675781250,53,98,89,80,83,15294,2147757229,2147423442,2148006811,2147877266,2147643995,2147059501,2148260178,2147200758,3466,4,13,7006
1338366897,5811,1011.3400268554688000,47.1544189453125000,673.8087768554688000,4.1722950935363770,54.1122207641601560,52,98,88,79,83,15294,2147758491,2147420992,2148008548,2147874569,2147648164,2147061174,2148265956,2147197796,239,4,13,57521
1338370497,5806,1010.6799926757812000,47.6311988830566400,674.5505981445312000,4.1477570533752440,54.0584297180175800,53,100,89,80,84,15288,2147759625,2147421174,2148008100,2147877412,2147642139,2147064493,2148267099,2147199597,131,4,13,28724
1338374097,5810,1009.6199951171875000,47.1125907897949200,674.2974243164062000,4.1561322212219240,54.1249694824218750,52,98,93,79,83,15292,2147760868,2147424530,2148008073,2147874587,2147642011,2147060141,2148266514,2147198518,243,4,13,17478
1338377697,5808,1010.1900024414062000,47.4468917846679700,674.2932739257812000,4.1562690734863280,54.0810317993164060,52,99,89,79,83,15291,2147762267,2147421522,2148009344,2147876297,2147643620,2147063204,2148265088,2147202422,303,4,13,60201
1338381297,5811,1011.9799804687500000,47.4993286132812500,674.3942260742188000,4.1529312133789060,54.0723991394043000,52,100,86,79,82,15288,2147761316,2147420342,2148005494,2147876891,2147643474,2147061814,2148266221,2147201179,156,4,13,48314
1338384897,5808,1011.0900268554688000,47.3885383605957000,674.7105102539062000,4.1424660682678220,54.0927581787109400,53,99,91,78,84,15290,2147760347,2147422427,2148007689,2147874989,2147645458,2147062491,2148266825,2147199524,310,4,13,48964
1338388497,5808,1008.6099853515625000,47.4522590637207000,674.9558715820312000,4.1343460083007810,54.0888595581054700,53,98,89,80,83,15289,2147762706,2147422774,2148006171,2147874934,2147645897,2147064905,2148265819,2147202486,453,4,13,16950
1338392097,5808,1005.0399780273438000,47.4547805786132800,675.0744018554688000,4.1304240226745605,54.0864295959472660,52,100,88,80,83,15290,2147758528,2147422080,2148007296,2147880182,2147645723,2147063451,2148266651,2147199323,752,4,13,55537
1338395697,5809,1009.5100097656250000,47.5689582824707000,674.5103759765625000,4.1490879058837890,54.0642585754394500,52,98,88,79,83,15278,2147759872,2147422976,2148008731,2147876352,2147645970,2147058514,2148262198,2147202020,544,4,13,22795
1338399297,5808,1022.6599731445312000,47.0676307678222660,672.7587280273438000,4.2070260047912600,54.1150703430175800,52,103,86,80,83,15274,2147756827,2147422976,2148006208,2147876580,2147645549,2147060644,2148260973,2147199122,2931,4,13,18625
1338402897,5808,1017.5999755859375000,46.3322906494140600,672.6987915039062000,4.2090048789978030,54.2212409973144500,53,98,88,79,84,15286,2147760000,2147419776,2148008914,2147874569,2147643145,2147061805,2148265060,2147200795,42,4,13,45510
1338406497,5809,1010.2000122070312000,46.6661415100097660,673.9461059570312000,4.1677532196044920,54.1891288757324200,52,103,87,78,84,15283,2147761709,2147423460,2148006811,2147872740,2147646372,2147062134,2148265380,2147200914,433,4,13,50093
1338407455,5808,1012.5999755859375000,47.6011695861816400,674.3610839843750000,4.1540241241455080,54.0605201721191400,52,99,88,79,83,15316,2147759140,2147423798,2148007186,2147875382,2147644653,2147058020,2148265600,2147198491,323,4,13,25119
